Location: Peterborough
(44.3091°N, 78.3197°W)
Time: 22:40:55
(UTC-05:00)

Tiros 1 despin weight - Pass Details

Date: 05 December 2023
Orbit: 581 x 624 km, 48.2° (Epoch: 28 February)

Event Time Altitude Azimuth Distance (km) Brightness Sun altitude
Rises 15:39:08 0° 157° (SSE) 2,802 ? 7.1°
Enters shadow 15:49:22 -7° 74° (ENE) 3,738 ? 5.7°
Exits shadow 16:24:28 -74° 18° (NNE) 12,885 ? 0.7°
Reaches altitude 10° 17:18:51 10° 201° (SSW) 1,899 ? -7.9°
Maximum altitude 17:22:35 28° 142° (SE) 1,098 ? -8.5°
